Westminster, MD

4:43 AM EDT on May 28, 2017 (GMT -0400)
Carroll County Regional-Poage

Weather History for KDMW - October, 2012

Change the Weather History Date:

Saturday, October 13, 2012

  Actual Average (KTHV) Record (KTHV)
Temperature  
Mean Temperature 44 °F -  
Max Temperature 57 °F 0 °F 81 °F (2001)
Min Temperature 30 °F - 28 °F (2012)
Degree Days  
Heating Degree Days 22    
Moisture  
Dew Point 26 °F    
Average Humidity 52    
Maximum Humidity 93    
Minimum Humidity 29    
Precipitation  
Precipitation 0.00 in - - ()
Sea Level Pressure  
Sea Level Pressure 30.42 in    
Wind  
Wind Speed 3 mph (SSE)    
Max Wind Speed 13 mph    
Max Gust Speed 20 mph    
Visibility 10 miles    
Events      
Averages and records for this station are not official NWS values.
T = Trace of Precipitation, MM = Missing Value Source: NWS Daily Summary

Daily Weather History Graph

Daily Weather History Graph

Search for Another Location

Airport or City:

Trip Planner

Search our weather history database for the weather conditions in past years. The results will help you decide how hot, cold, wet, or windy it might be!

Date:

Astronomy

Oct. 13, 2012 Rise Set
Actual Time 7:16 AM EDT 6:31 PM EDT
Civil Twilight 6:49 AM EDT 6:58 PM EDT
Nautical Twilight 6:18 AM EDT 7:29 PM EDT
Astronomical Twilight 5:47 AM EDT 8:00 PM EDT
Moon 5:04 AM EDT (10/13) 5:13 PM EDT (10/13)
Length of Visible Light 12h 08m
Length of Day
11h 14m
Waning Crescent, 5% of the Moon is Illuminated
Oct 13
Waning Crescent
Oct 15
New
Oct 21
First Quarter
Oct 29
Full
Nov 6
Last Quarter

Hourly Weather History & Observations

Time (EDT) Temp. Windchill Dew Point Humidity Pressure Visibility Wind Dir Wind Speed Gust Speed Precip Events Conditions
12:13 AM 39.2 °F 37.0 °F 26.6 °F 61% 30.44 in 10.0 mi NNE 3.5 mph - N/A   Clear
12:34 AM 39.2 °F 37.0 °F 26.6 °F 61% 30.44 in 10.0 mi NE 3.5 mph - N/A   Clear
12:55 AM 39.2 °F - 24.8 °F 56% 30.44 in 10.0 mi Calm Calm - N/A   Clear
1:19 AM 39.2 °F - 26.6 °F 61% 30.44 in 10.0 mi Calm Calm - N/A   Clear
1:40 AM 37.4 °F 34.9 °F 26.6 °F 65% 30.44 in 10.0 mi ENE 3.5 mph - N/A   Clear
2:01 AM 39.2 °F - 24.8 °F 56% 30.44 in 10.0 mi Calm Calm - N/A   Clear
2:22 AM 39.2 °F - 24.8 °F 56% 30.45 in 10.0 mi Calm Calm - N/A   Clear
2:43 AM 39.2 °F - 24.8 °F 56% 30.46 in 10.0 mi Calm Calm - N/A   Clear
3:04 AM 39.2 °F - 24.8 °F 56% 30.46 in 10.0 mi Calm Calm - N/A   Clear
3:25 AM 37.4 °F - 24.8 °F 60% 30.46 in 10.0 mi Calm Calm - N/A   Clear
4:07 AM 37.4 °F - 26.6 °F 65% 30.46 in 10.0 mi Calm Calm - N/A   Clear
4:28 AM 35.6 °F - 26.6 °F 70% 30.46 in 10.0 mi Calm Calm - N/A   Clear
4:52 AM 33.8 °F - 26.6 °F 75% 30.47 in 10.0 mi Calm Calm - N/A   Clear
5:13 AM 33.8 °F - 26.6 °F 75% 30.49 in 10.0 mi Calm Calm - N/A   Clear
5:55 AM 32.0 °F - 26.6 °F 80% 30.49 in 10.0 mi Calm Calm - N/A   Clear
6:16 AM 32.0 °F - 26.6 °F 80% 30.49 in 10.0 mi Calm Calm - N/A   Clear
6:37 AM 32.0 °F - 26.6 °F 80% 30.49 in 10.0 mi Calm Calm - N/A   Clear
6:58 AM 32.0 °F - 26.6 °F 80% 30.50 in 10.0 mi Calm Calm - N/A   Clear
7:19 AM 30.2 °F - 28.4 °F 93% 30.50 in 10.0 mi Calm Calm - N/A   Clear
7:40 AM 30.2 °F - 28.4 °F 93% 30.51 in 10.0 mi Calm Calm - N/A   Clear
8:01 AM 32.0 °F - 28.4 °F 87% 30.50 in 10.0 mi Calm Calm - N/A   Clear
8:22 AM 33.8 °F - 28.4 °F 81% 30.51 in 10.0 mi Calm Calm - N/A   Clear
8:43 AM 35.6 °F - 28.4 °F 75% 30.51 in 10.0 mi Calm Calm - N/A   Clear
9:49 AM 42.8 °F 38.6 °F 19.4 °F 39% 30.52 in 10.0 mi SE 6.9 mph - N/A   Clear
10:31 AM 44.6 °F 41.4 °F 17.6 °F 34% 30.51 in 10.0 mi SE 5.8 mph - N/A   Clear
10:52 AM 44.6 °F 43.1 °F 17.6 °F 34% 30.51 in 10.0 mi SSE 3.5 mph - N/A   Clear
11:13 AM 46.4 °F - 15.8 °F 29% 30.51 in 10.0 mi Calm Calm - N/A   Clear
11:34 AM 46.4 °F - 17.6 °F 32% 30.51 in 10.0 mi Calm Calm - N/A   Clear
11:55 AM 48.2 °F - 17.6 °F 30% 30.50 in 10.0 mi South 4.6 mph - N/A   Clear
12:16 PM 50.0 °F - 19.4 °F 30% 30.48 in 10.0 mi South 5.8 mph - N/A   Clear
12:58 PM 51.8 °F - 21.2 °F 30% 30.45 in 10.0 mi South 3.5 mph - N/A   Clear
1:19 PM 51.8 °F - 21.2 °F 30% 30.43 in 10.0 mi SE 5.8 mph - N/A   Clear
2:01 PM 53.6 °F - 23.0 °F 30% 30.40 in 10.0 mi SSE 11.5 mph - N/A   Clear
2:22 PM 55.4 °F - 24.8 °F 31% 30.39 in 10.0 mi South 11.5 mph - N/A   Clear
2:46 PM 55.4 °F - 24.8 °F 31% 30.38 in 10.0 mi SSW 10.4 mph 17.3 mph N/A   Clear
3:07 PM 55.4 °F - 26.6 °F 33% 30.39 in 10.0 mi South 6.9 mph - N/A   Clear
3:28 PM 55.4 °F - 26.6 °F 33% 30.38 in 10.0 mi South 8.1 mph - N/A   Clear
3:49 PM 57.2 °F - 24.8 °F 29% 30.38 in 10.0 mi SW 6.9 mph - N/A   Clear
4:31 PM 55.4 °F - 26.6 °F 33% 30.38 in 10.0 mi South 9.2 mph - N/A   Clear
4:52 PM 57.2 °F - 26.6 °F 31% 30.37 in 10.0 mi South 8.1 mph - N/A   Clear
5:13 PM 55.4 °F - 26.6 °F 33% 30.36 in 10.0 mi South 8.1 mph - N/A   Clear
5:34 PM 55.4 °F - 26.6 °F 33% 30.36 in 10.0 mi South 6.9 mph - N/A   Clear
5:55 PM 53.6 °F - 28.4 °F 38% 30.36 in 10.0 mi South 6.9 mph - N/A   Clear
6:37 PM 51.8 °F - 28.4 °F 41% 30.35 in 10.0 mi South 5.8 mph - N/A   Clear
6:58 PM 51.8 °F - 28.4 °F 41% 30.34 in 10.0 mi South 8.1 mph - N/A   Clear
7:19 PM 51.8 °F - 28.4 °F 41% 30.33 in 10.0 mi South 8.1 mph - N/A   Clear
7:43 PM 50.0 °F - 30.2 °F 47% 30.34 in 10.0 mi South 6.9 mph - N/A   Clear
8:25 PM 48.2 °F - 30.2 °F 50% 30.33 in 10.0 mi SSE 6.9 mph - N/A   Clear
8:46 PM 48.2 °F - 30.2 °F 50% 30.33 in 10.0 mi SSE 8.1 mph - N/A   Clear
9:07 PM 48.2 °F - 30.2 °F 50% 30.34 in 10.0 mi SSE 6.9 mph - N/A   Clear
9:49 PM 48.2 °F - 30.2 °F 50% 30.33 in 10.0 mi South 10.4 mph - N/A   Clear
10:31 PM 48.2 °F - 30.2 °F 50% 30.31 in 10.0 mi South 11.5 mph - N/A   Clear
10:52 PM 46.4 °F 41.5 °F 30.2 °F 53% 30.30 in 10.0 mi South 10.4 mph - N/A   Clear
11:13 PM 48.2 °F - 30.2 °F 50% 30.30 in 10.0 mi South 10.4 mph - N/A   Clear
11:58 PM 48.2 °F - 32.0 °F 54% 30.26 in 10.0 mi South 12.7 mph 19.6 mph N/A   Clear